Location: Niedergestelen
(46.3129°N, 7.7822°E)
Time: 14:24:52
(UTC+00:00)

X-37B - Pass Details

Date: 26 September 2021
Orbit: 385 x 389 km, 45.0° (Epoch: 17 October)

Event Time Altitude Azimuth Distance (km) Brightness Sun altitude
Exits shadow 02:45:15 15° 102° (ESE) 1,171 3.5 -26.7°
Drops below altitude 10° 02:45:57 10° 95° (E) 1,414 4.1 -26.5°
Sets 02:48:11 0° 83° (E) 2,271 5.6 -26.2°
